TimeMST,TemperatureF,Dew PointF,Humidity,Sea Level PressureIn,VisibilityMPH,Wind Direction,Wind SpeedMPH,Gust SpeedMPH,PrecipitationIn,Events,Conditions,WindDirDegrees,DateUTC
12:56 AM,12.9,5.0,71,30.43,10.0,Calm,Calm,-,N/A,,Clear,0,2013-01-06 07:56:00
1:56 AM,12.9,5.0,71,30.42,10.0,Calm,Calm,-,N/A,,Clear,0,2013-01-06 08:56:00
2:56 AM,10.9,3.0,70,30.41,10.0,Calm,Calm,-,N/A,,Clear,0,2013-01-06 09:56:00
3:56 AM,10.9,3.9,73,30.40,10.0,SSE,3.5,-,N/A,,Clear,150,2013-01-06 10:56:00
4:56 AM,12.0,6.1,77,30.39,10.0,Calm,Calm,-,N/A,,Clear,0,2013-01-06 11:56:00
5:56 AM,12.0,5.0,73,30.40,10.0,Calm,Calm,-,N/A,,Clear,0,2013-01-06 12:56:00
6:56 AM,10.9,5.0,77,30.42,10.0,Calm,Calm,-,N/A,,Clear,0,2013-01-06 13:56:00
7:56 AM,10.9,5.0,77,30.44,10.0,Calm,Calm,-,N/A,,Clear,0,2013-01-06 14:56:00
8:56 AM,18.0,9.0,68,30.43,10.0,SE,5.8,-,N/A,,Clear,140,2013-01-06 15:56:00
9:56 AM,21.0,10.0,63,30.39,10.0,ESE,5.8,-,N/A,,Clear,110,2013-01-06 16:56:00
10:56 AM,27.0,10.0,49,30.36,10.0,ESE,8.1,-,N/A,,Clear,120,2013-01-06 17:56:00
11:56 AM,30.0,10.0,43,30.31,10.0,ESE,10.4,-,N/A,,Clear,120,2013-01-06 18:56:00
12:56 PM,34.0,10.0,37,30.22,10.0,ESE,8.1,-,N/A,,Clear,120,2013-01-06 19:56:00
1:56 PM,36.0,10.9,36,30.16,10.0,ESE,6.9,-,N/A,,Clear,110,2013-01-06 20:56:00
2:56 PM,39.9,12.9,33,30.13,10.0,East,4.6,-,N/A,,Clear,100,2013-01-06 21:56:00
3:56 PM,44.1,12.9,28,30.11,10.0,NNW,8.1,-,N/A,,Clear,330,2013-01-06 22:56:00
4:56 PM,37.9,12.0,35,30.12,10.0,NNW,6.9,-,N/A,,Clear,330,2013-01-06 23:56:00
5:56 PM,32.0,10.9,42,30.14,10.0,NW,8.1,-,N/A,,Clear,320,2013-01-07 00:56:00
6:56 PM,25.0,10.0,53,30.15,10.0,Calm,Calm,-,N/A,,Clear,0,2013-01-07 01:56:00
7:56 PM,24.1,9.0,53,30.16,10.0,WNW,6.9,-,N/A,,Clear,290,2013-01-07 02:56:00
8:56 PM,19.0,8.1,62,30.15,10.0,West,4.6,-,N/A,,Clear,260,2013-01-07 03:56:00
9:56 PM,18.0,8.1,65,30.14,10.0,Calm,Calm,-,N/A,,Clear,0,2013-01-07 04:56:00
10:56 PM,17.1,8.1,68,30.12,10.0,SW,5.8,-,N/A,,Clear,230,2013-01-07 05:56:00
11:56 PM,15.1,7.0,70,30.11,10.0,SW,4.6,-,N/A,,Clear,230,2013-01-07 06:56:00